FENGYUN 1C DEB, 29821

Orbit data source: Space-Track

FENGYUN 1C DEB, 29821 is space debris in SSO originally from a launch on Mon, 10 May 1999 UTC launched from the Taiyaun Space Center, China (TSC). Fengyun 1C debris stems from the Chinese weather satellite Fengyun-1C, which was intentionally destroyed by a Chinese anti-satellite missile in 2007. This event dramatically increased the amount of space debris, with thousands of trackable fragments posing hazards to satellites and human spaceflight. The Fengyun 1C debris cloud has become a focal point in discussions about space sustainability and the need for international regulations to prevent the creation of new debris.

Loading next visibility...
Identifier
29821, 1999-025DP
Orbit
SSO
Country
Flag of CNCN / PRC
Related business
Manufacturer
Unknown
Mission
Spacecraft
Bus & Motor
Unknown
Mass
Unknown
Launch date (UTC)
1999-05-10 (27 years ago)
Launch vehicle
Unknown
Launch site
Taiyaun Space Center, China (TSC)
Object type
Payload
Rocket body
Debris
Shape & HBR
Unknown shape, 0.1 m
Radar Cross Section
Medium (>0.1 m² and <1 m²)

Expand to show TLE details & history
Last TLE update: 7 hours ago

TLE from 7 hours ago
0 FENGYUN 1C DEB
1 29821U 99025DP  26255.11321023  .00001225  00000-0  35913-3 0  9994
2 29821  98.8390 312.2781 0372318  65.2415 327.5391 14.12191969  3682
Epoch: 2026-09-12T02:43Z
TLE epoch observation values (Epoch: 2026-09-12T02:43:01.363Z)
Latitude
30.05418°
Longitude
-84.73848°
Altitude
631.481 km
Speed
7.662 km/s
True Right ascension
20h 28m 34s
True Declination
29° 54' 10"
Sunlit
Object was in full shadow at epoch
Visualization orbit readout
Latitude
Unknown
Longitude
Unknown
Altitude
Unknown
Speed
Unknown
Apparent Right ascension
Unknown
Apparent Declination
Unknown
Sunlit
N/A
Visualization observer readout
Local Sidereal Time
02:11:39
Azimuth
Unknown
Elevation
Unknown
Doppler factor
Unknown
Orbital elements
Apogee altitude
1,118.131 km
Perigee altitude
579.969 km
Semi-major axis
7,227.187 km
Eccentricity
0.03723
Inclination
98.839°
RAAN
312.2781°
Arg. of periapsis
65.2415°
True anomaly
325.15645°
Mean anomaly
327.5391°
Eccentric anomaly
326.35727°
Mean motion
3.53256 °/min
Orbital period
101.91 mins
BSTAR
0.00035913
Loading maneuver chart data...
Computing Atmospheric mass density...

Documentation

Showing up to 5 results
|